[Iaude] MPEC B19: 2019 AM12 [a=1.10,e=0.06,i=8.5,H=25.4]

mpec at mpcdb1.cfa.harvard.edu mpec at mpcdb1.cfa.harvard.edu
Wed Jan 16 10:09:18 EST 2019


M.P.E.C. 2019-B19                                Issued 2019 Jan. 16, 15:05 UT
 
     The Minor Planet Electronic Circulars contain information on unusual
         minor planets and routine data on comets.  They are published
    on behalf of Division F of the International Astronomical Union by the
          Minor Planet Center, Smithsonian Astrophysical Observatory,
                          Cambridge, MA 02138, U.S.A.

             Prepared using the Tamkin Foundation Computer Network

                              MPC at CFA.HARVARD.EDU
            URL https://www.minorplanetcenter.net/    ISSN 1523-6714


                                   2019 AM12
 
Observations:
     K19A12M  C2019 01 09.41419008 56 59.391+19 51 32.42         22.3 GVEB019F51
     K19A12M  C2019 01 09.43964408 56 55.126+19 50 35.07         22.3 GVEB019F51
     K19A12M  C2019 01 13.55771908 45 47.491+17 03 53.47         22.4 GVEB019F51
     K19A12M  C2019 01 13.58078108 45 43.037+17 02 53.60         22.1 GVEB019F51
     K19A12M* C2019 01 14.53484 08 42 56.068+16 21 52.96         22.2 wUEB019F51
     K19A12M  C2019 01 14.54665 08 42 53.696+16 21 21.70         22.9 wUEB019F51
     K19A12M  C2019 01 14.57023 08 42 48.998+16 20 19.14         22.5 wUEB019F51
     K19A12M ^C2019 01 15.36370308 40 30.238+15 45 31.01         22.09GVEB019568
     K19A12M ^C2019 01 15.36488208 40 30.002+15 45 27.93         22.17GVEB019568
     K19A12M ^C2019 01 15.36606508 40 29.768+15 45 24.87         22.29GVEB019568
 
Observer details:
568 Mauna Kea.  Observers R. Wainscoat, L. Wells, S. Prunet.  Measurers
    R. Weryk, R. Wainscoat.  3.6-m Canada-France-Hawaii Telescope + CCD.
F51 Pan-STARRS 1, Haleakala.  Observers J. Bulger, K. Chambers, T. Lowe,
    E. Magnier, A. Schultz, M. Willman.  Measurers S. Chastel, M. Huber,
    Y. Ramanjooloo, R. Wainscoat, R. Weryk, K. Chambers, L. Denneau,
    J. Fairlamb, H. Flewelling, C.-C. Lin, E. Magnier.  1.8-m
    Ritchey-Chretien + CCD.
 
Orbital elements:
2019 AM12                                                Earth MOID = 0.0497 AU
Epoch 2019 Apr. 27.0 TT = JDT 2458600.5                 MPC
M 331.97235              (2000.0)            P               Q
n   0.84872504     Peri.  302.34081     -0.54330037     +0.82876344
a   1.1048196      Node   294.17755     -0.71239875     -0.53960306
e   0.0564491      Incl.    8.45113     -0.44419897     -0.14825550
P   1.16           H   25.4           G   0.15           U   6
Residuals in seconds of arc
190109 F51  0.1-  0.1+    190114 F51  0.1+  0.1+    190115 568  0.1-  0.1-
190109 F51  0.1+  0.0     190114 F51  0.0   0.0     190115 568  0.0   0.1-
190113 F51  0.0   0.1-    190114 F51  0.1-  0.0
190113 F51  0.1+  0.0     190115 568  0.1-  0.1-

Ephemeris:
2019 AM12                a,e,i = 1.10, 0.06, 8                   q = 1.0425
Date    TT    R. A. (2000) Decl.     Delta      r     Elong.  Phase     V
2018 12 17    09 22 52.0 +30 37 54   0.2414  1.1532   129.7    41.1    24.2
...
2019 01 01    09 13 37.8 +24 37 15   0.1883  1.1439   145.7    28.9    23.3
...
2019 01 09    08 57 58.5 +20 07 24   0.1663  1.1381   156.8    19.9    22.8
...
2019 01 15    08 41 33.9 +16 01 41   0.1541  1.1335   165.6    12.5    22.4
2019 01 16    08 38 31.1 +15 17 23   0.1525  1.1327   166.9    11.4    22.3
2019 01 17    08 35 23.9 +14 32 15   0.1510  1.1319   168.1    10.3    22.2
...
2019 01 23    08 15 36.8 +09 48 30   0.1446  1.1269   170.2     8.6    22.0
...
2019 01 31    07 48 47.2 +03 25 27   0.1432  1.1200   159.0    18.4    22.4
...
2019 02 15    07 10 30.9 -06 06 50   0.1586  1.1064   135.6    38.6    23.2

A. U. Tomatic                (C) Copyright 2019 MPC           M.P.E.C. 2019-B19



More information about the Iaude mailing list